Weather History for Akron Canton, OH

Change the Weather History Date:

Wednesday, January 23, 2013

  Actual Average Record
Temperature  
Mean Temperature 9 °F 26 °F  
Max Temperature 16 °F 33 °F 73 °F (1906)
Min Temperature 1 °F 19 °F -15 °F (1963)
Degree Days  
Heating Degree Days 56 39  
Month to date heating degree days 807 895  
Since 1 July heating degree days 2953 3225  
Cooling Degree Days 0 0  
Month to date cooling degree days 0 0  
Year to date cooling degree days 0 0  
Moisture  
Dew Point 3 °F    
Average Humidity 72    
Maximum Humidity 92    
Minimum Humidity 51    
Precipitation  
Precipitation 0.02 in 0.08 in 0.89 in (1965)
Month to date precipitation 0.73 1.96  
Year to date precipitation 0.73 1.96  
Snow  
Snow 0.70 in 0.40 in - ()
Month to date snowfall 2.8 9.2  
Since 1 July snowfall 17.1 22.8  
Snow Depth 1.00 in    
Sea Level Pressure  
Sea Level Pressure 30.23 in    
Wind  
Wind Speed 6 mph (WSW)    
Max Wind Speed 15 mph    
Max Gust Speed 20 mph    
Visibility 7 miles    
Events Snow    
T = Trace of Precipitation, MM = Missing Value Source: NWS Daily Summary

Daily Weather History Graph

Daily Weather History Graph

Search for Another Location

Airport:

Trip Planner

Search our weather history database for the weather conditions in past years. The results will help you decide how hot, cold, wet, or windy it might be!

Date:

Astronomy

Jan. 23, 2013 Rise Set
Actual Time 7:43 AM EST 5:32 PM EST
Civil Twilight 7:13 AM EST 6:01 PM EST
Nautical Twilight 6:40 AM EST 6:35 PM EST
Astronomical Twilight 6:07 AM EST 7:07 PM EST
Moon 2:41 PM EST (1/23) 4:54 AM EST (1/23)
Length of Visible Light 10h 48m
Length of Day
9h 48m
Waxing Gibbous, 89% of the Moon is Illuminated
Jan 23
Waxing Gibbous
Jan 26
Full
Feb 3
Last Quarter
Feb 10
New
Feb 17
First Quarter

Hourly Weather History & Observations

Time (EST) Temp. Windchill Dew Point Humidity Pressure Visibility Wind Dir Wind Speed Gust Speed Precip Events Conditions
12:51 AM 3.9 °F -6.9 °F -2.0 °F 76% 30.31 in 8.0 mi WSW 5.8 mph - N/A   Partly Cloudy
1:51 AM 3.9 °F -5.3 °F -2.9 °F 73% 30.31 in 8.0 mi WSW 4.6 mph - N/A   Clear
2:51 AM 3.0 °F -4.4 °F -2.9 °F 76% 30.32 in 8.0 mi WSW 3.5 mph - N/A   Clear
3:51 AM 3.0 °F -6.4 °F -2.9 °F 76% 30.31 in 8.0 mi WSW 4.6 mph - N/A   Partly Cloudy
4:51 AM 3.0 °F -8.0 °F -2.9 °F 76% 30.31 in 8.0 mi West 5.8 mph - N/A   Partly Cloudy
5:51 AM 1.0 °F -8.7 °F -4.0 °F 79% 30.32 in 8.0 mi WSW 4.6 mph - N/A   Clear
6:51 AM 1.0 °F -10.3 °F -5.1 °F 75% 30.32 in 8.0 mi SW 5.8 mph - N/A   Clear
7:51 AM 1.9 °F -5.6 °F -4.0 °F 76% 30.32 in 10.0 mi SW 3.5 mph - N/A   Partly Cloudy
8:51 AM 7.0 °F -4.5 °F -0.0 °F 73% 30.31 in 10.0 mi West 6.9 mph - N/A   Mostly Cloudy
9:51 AM 9.0 °F -5.1 °F 1.0 °F 70% 30.32 in 10.0 mi WSW 10.4 mph - N/A   Overcast
10:51 AM 10.9 °F -0.8 °F 1.9 °F 67% 30.31 in 10.0 mi West 8.1 mph - N/A   Overcast
11:51 AM 12.9 °F 0.7 °F 1.9 °F 62% 30.29 in 10.0 mi WSW 9.2 mph - N/A   Overcast
12:39 PM 14.0 °F -0.2 °F 3.2 °F 62% 30.18 in 8.0 mi West 12.7 mph - 0.00 in Snow Light Snow
12:51 PM 14.0 °F -0.2 °F 1.4 °F 57% 30.17 in 10.0 mi WSW 12.7 mph - N/A   Overcast
1:51 PM 14.0 °F 1.2 °F 3.0 °F 62% 30.23 in 6.0 mi West 10.4 mph - 0.00 in Snow Light Snow
2:51 PM 14.0 °F 1.2 °F 3.9 °F 64% 30.22 in 8.0 mi SW 10.4 mph - 0.00 in   Overcast
3:51 PM 16.0 °F 4.4 °F -0.0 °F 49% 30.20 in 8.0 mi WSW 9.2 mph - N/A   Overcast
4:51 PM 15.1 °F 5.2 °F 1.9 °F 56% 30.18 in 7.0 mi WSW 6.9 mph - 0.00 in Snow Light Snow
5:51 PM 15.1 °F 4.2 °F 7.0 °F 70% 30.17 in 3.0 mi SW 8.1 mph - 0.00 in Snow Light Snow
6:51 PM 14.0 °F 3.9 °F 9.0 °F 80% 30.16 in 3.0 mi SSW 6.9 mph - 0.00 in Snow Light Snow
7:51 PM 14.0 °F 8.2 °F 10.0 °F 84% 30.16 in 3.0 mi SW 3.5 mph - 0.00 in Snow Light Snow
8:51 PM 14.0 °F 6.5 °F 10.4 °F 86% 30.06 in 2.0 mi SSW 4.6 mph - N/A Snow Light Snow
9:51 PM 12.9 °F 6.9 °F 10.0 °F 88% 30.12 in 2.0 mi SSW 3.5 mph - 0.01 in Snow Light Snow
10:49 PM 12.2 °F - 8.6 °F 85% 30.04 in 3.0 mi Calm Calm - 0.00 in Snow Light Snow
10:51 PM 12.0 °F - 9.0 °F 88% 30.11 in 3.0 mi Calm Calm - 0.00 in Snow Light Snow
11:51 PM 14.0 °F - 10.0 °F 84% 30.10 in 1.8 mi Calm Calm - 0.00 in Snow Light Snow